STARLINK-36620, 67654

Orbit data source: Space-Track

STARLINK-36620, 67654 is a payload satellite owned by SpaceX/Seattle (US) in SSO that was launched on Mon, 02 Feb 2026 UTC via an FALCON 9 launch vehicle from the Air Force Western Test Range (AFWTR). Payload-class satellites include a variety of spacecraft equipped with specific instruments for various scientific and technological missions. These include communications satellites like Starlink; space stations such as the ISS; scientific satellites like the Hubble; Earth observation satellites from companies like Planet Labs, Umbra, and HawkEye 360; GPS; miniature CubeSats for education and research; and military/defense satellites.

Loading next visibility...
Identifier
67654, 2026-022G
Orbit
SSO
Country
Flag of USUS
Related business
Manufacturer
SpaceX/Seattle
Mission
Operational spacecraft
Bus & Motor
STARLINK V2MO, Unknown motor
Mass
575 kg wet, ~530 kg dry
Launch date (UTC)
2026-02-02 (2 months ago)
Launch vehicle
FALCON 9
Launch site
Air Force Western Test Range (AFWTR)
Object type
Payload
Rocket body
Debris
Shape & HBR
Unknown shape, 17.7 m
Radar Cross Section
RCS unknown

Expand to show TLE details & history
Last TLE update: 15 hours ago

TLE from 15 hours ago
0 STARLINK-36620
1 67654U 26022G   26094.99851596  .00025659  00000-0  77345-3 0  9999
2 67654  97.2842 128.9477 0001853  64.3434 295.8001 15.34294516  9601
Epoch: 2026-04-04T23:57Z
TLE epoch observation values (Epoch: 2026-04-04T23:57:51.778Z)
Latitude
Longitude
-63.82829°
Altitude
465.578 km
Speed
7.634 km/s
True Right ascension
08h 35m 47s
True Declination
0° 00' 00"
Sunlit
Object was in full shadow at epoch
Visualization orbit readout
Latitude
Unknown
Longitude
Unknown
Altitude
Unknown
Speed
Unknown
Apparent Right ascension
Unknown
Apparent Declination
Unknown
Sunlit
N/A
Visualization observer readout
Local Sidereal Time
20:59:48
Azimuth
Unknown
Elevation
Unknown
Doppler factor
Unknown
Orbital elements
Apogee altitude
461.225 km
Perigee altitude
458.691 km
Semi-major axis
6,838.095 km
Eccentricity
0.00019
Inclination
97.2842°
RAAN
128.9477°
Arg. of periapsis
64.3434°
True anomaly
295.78098°
Mean anomaly
295.8001°
Eccentric anomaly
295.79054°
Mean motion
3.83831 °/min
Orbital period
93.79 mins
BSTAR
0.00077345
Loading maneuver chart data...
Computing Atmospheric mass density...
Loading historical data...
Loading historical data...
Loading historical data...
Loading historical data...
Loading historical data...
Loading historical data...
Loading historical data...

Documentation

Showing up to 5 results
|